KD4TJG Weather Reports


Display with metric or nautical units.
time (UTC)temp
F
wind
direction
speed
MPH
gust
MPH
rain 1hr
in
rain 24hr
in
rain mn
in
humidity
%
barometer
mb
20260509012021 53 0 0.0 1.0 0.00 0.00 0.00 74 1014.5
20260509011553 53 0 0.0 1.0 0.00 0.00 0.00 73 1014.4
20260509011302 54 269 0.0 0.0 0.00 0.00 0.00 73 1016.4
20260509011020 54 0 0.0 1.0 0.00 0.00 0.00 72 1014.4
20260509010520 54 0 0.0 1.0 0.00 0.00 0.00 73 1014.4
20260509010259 55 269 0.0 0.0 0.00 0.00 0.00 72 1016.5
20260509010046 54 0 0.0 0.0 0.00 0.00 0.00 72 1014.4
20260509005522 55 0 0.0 1.0 0.00 0.00 0.00 71 1014.3
20260509005250 55 269 0.0 0.0 0.00 0.00 0.00 70 1016.3
20260509005020 55 0 0.0 1.0 0.00 0.00 0.00 70 1014.2
20260509004548 56 0 0.0 1.0 0.00 0.00 0.00 68 1014.2
20260509004229 56 269 0.0 0.0 0.00 0.00 0.00 67 1016.2
20260509004020 56 0 0.0 1.0 0.00 0.00 0.00 66 1014.2
20260509003518 56 0 0.0 1.0 0.00 0.00 0.00 66 1014.1
20260509003228 57 269 0.0 0.0 0.00 0.00 0.00 64 1016.1
20260509003035 57 0 0.0 1.0 0.00 0.00 0.00 64 1014.1
20260509002520 57 0 0.0 1.0 0.00 0.00 0.00 62 1014.1
20260509002159 58 269 0.0 0.0 0.00 0.00 0.00 60 1016.1
20260509002022 58 0 0.0 1.0 0.00 0.00 0.00 60 1014.0
20260509001542 59 0 0.0 2.0 0.00 0.00 0.00 59 1013.9
20260509001155 60 269 0.0 0.0 0.00 0.00 0.00 59 1016.0
20260509001020 59 0 0.0 2.0 0.00 0.00 0.00 58 1013.9
20260509000520 60 269 0.0 2.0 0.00 0.00 0.00 56 1013.8
20260509000041 61 314 0.0 1.0 0.00 0.00 0.00 56 1013.9
20260508235521 62 150 0.0 2.0 0.00 0.00 0.00 53 1013.8
20260508235021 63 0 0.0 3.0 0.00 0.00 0.00 48 1013.9
20260508235014 64 141 0.0 0.0 0.00 0.00 0.00 48 1016.0
20260508234541 64 141 0.0 4.0 0.00 0.00 0.00 43 1014.0
20260508234020 64 142 1.0 5.0 0.00 0.00 0.00 41 1013.9
20260508233942 65 144 1.0 3.0 0.00 0.00 0.00 41 1016.0
20260508233521 64 139 2.0 5.0 0.00 0.00 0.00 40 1014.1
20260508233053 65 147 2.0 4.0 0.00 0.00 0.00 39 1014.1
20260508232952 65 143 1.0 6.0 0.00 0.00 0.00 39 1016.2
20260508232520 65 174 1.0 6.0 0.00 0.00 0.00 40 1014.2
20260508232021 65 145 1.0 7.0 0.00 0.00 0.00 39 1014.1
20260508232002 66 167 2.0 8.0 0.00 0.00 0.00 39 1016.1
20260508231541 66 183 3.0 9.0 0.00 0.00 0.00 37 1014.1
20260508231021 66 146 4.0 10.0 0.00 0.00 0.00 37 1014.1
20260508231005 66 151 3.0 8.0 0.00 0.00 0.00 37 1016.2
20260508230520 66 149 2.0 10.0 0.00 0.00 0.00 37 1014.0
20260508230040 66 175 4.0 9.0 0.00 0.00 0.00 36 1014.0
20260508225523 67 151 3.0 9.0 0.00 0.00 0.00 37 1013.8
20260508225021 67 96 1.0 6.0 0.00 0.00 0.00 38 1013.8
20260508224540 68 184 2.0 9.0 0.00 0.00 0.00 37 1013.9
20260508224020 68 138 3.0 9.0 0.00 0.00 0.00 37 1013.8
20260508223634 69 214 3.0 10.0 0.00 0.00 0.00 37 1016.0
20260508223520 68 166 4.0 9.0 0.00 0.00 0.00 37 1013.9
20260508223046 68 200 3.0 9.0 0.00 0.00 0.00 38 1013.9
20260508222613 69 164 4.0 10.0 0.00 0.00 0.00 37 1015.9
20260508222520 69 156 3.0 12.0 0.00 0.00 0.00 37 1013.9
20260508222020 69 197 5.0 12.0 0.00 0.00 0.00 35 1013.8
20260508221629 70 185 3.0 7.0 0.00 0.00 0.00 35 1015.7
20260508221541 69 170 4.0 8.0 0.00 0.00 0.00 38 1013.6
20260508221022 69 199 2.0 8.0 0.00 0.00 0.00 37 1013.7
20260508220601 69 166 2.0 7.0 0.00 0.00 0.00 37 1015.6
20260508220520 68 237 4.0 8.0 0.00 0.00 0.00 36 1013.6
20260508220036 68 209 2.0 9.0 0.00 0.00 0.00 39 1013.5
20260508215621 69 133 3.0 8.0 0.00 0.00 0.00 36 1015.6
20260508215520 68 137 3.0 9.0 0.00 0.00 0.00 38 1013.6
20260508215021 69 225 3.0 9.0 0.00 0.00 0.00 35 1013.6
20260508214601 70 260 3.0 9.0 0.00 0.00 0.00 36 1015.7
20260508214548 69 179 4.0 9.0 0.00 0.00 0.00 36 1013.7
20260508214020 69 215 3.0 11.0 0.00 0.00 0.00 35 1013.7
20260508213520 69 166 5.0 11.0 0.00 0.00 0.00 35 1013.8
20260508213042 69 226 4.0 9.0 0.00 0.00 0.00 35 1013.7
20260508212521 69 299 3.0 7.0 0.00 0.00 0.00 34 1013.7
20260508212353 70 201 1.0 6.0 0.00 0.00 0.00 36 1015.7
20260508212026 69 209 1.0 8.0 0.00 0.00 0.00 38 1013.7
20260508211543 69 351 2.0 9.0 0.00 0.00 0.00 34 1013.6
20260508211417 70 357 3.0 7.0 0.00 0.00 0.00 35 1015.6
20260508211021 70 228 5.0 9.0 0.00 0.00 0.00 33 1013.8
20260508210521 70 209 3.0 8.0 0.00 0.00 0.00 34 1013.8
20260508210035 70 262 1.0 7.0 0.00 0.00 0.00 34 1013.9
20260508205520 69 157 2.0 10.0 0.00 0.07 0.00 34 1013.8
20260508205224 70 247 3.0 9.0 0.00 0.00 0.00 33 1016.0
20260508205020 70 245 4.0 10.0 0.00 0.07 0.00 34 1014.0
20260508204544 69 124 3.0 10.0 0.00 0.07 0.00 35 1014.0
20260508204232 70 173 4.0 9.0 0.00 0.00 0.00 35 1016.1
20260508204026 70 201 6.0 10.0 0.00 0.07 0.00 33 1014.3
20260508203520 70 255 4.0 10.0 0.00 0.07 0.00 33 1014.3
20260508203239 71 210 3.0 7.0 0.00 0.00 0.00 32 1016.5
20260508203045 70 234 4.0 10.0 0.00 0.07 0.00 33 1014.5
20260508202525 70 266 4.0 10.0 0.00 0.07 0.00 31 1014.4
20260508202306 71 288 3.0 10.0 0.00 0.00 0.00 34 1016.5
20260508202021 70 243 3.0 10.0 0.00 0.07 0.00 32 1014.5
20260508201537 70 170 2.0 10.0 0.00 0.07 0.00 33 1014.4
20260508201250 71 135 3.0 10.0 0.00 0.03 0.00 34 1016.5
20260508201023 70 208 2.0 11.0 0.00 0.07 0.00 30 1014.5
20260508200520 70 197 4.0 11.0 0.00 0.07 0.00 31 1014.6
20260508200255 70 130 3.0 10.0 0.00 0.06 0.00 34 1016.6
20260508200035 70 185 3.0 12.0 0.00 0.07 0.00 34 1014.6
20260508195520 70 191 3.0 12.0 0.00 0.11 0.00 33 1014.6
20260508195021 70 203 6.0 12.0 0.00 0.11 0.00 32 1014.6
20260508194541 71 181 5.0 10.0 0.00 0.11 0.00 32 1014.4
20260508194207 71 160 4.0 11.0 0.00 0.08 0.00 34 1016.5
20260508194020 71 95 4.0 10.0 0.00 0.11 0.00 34 1014.6
20260508193520 71 179 5.0 12.0 0.00 0.11 0.00 34 1014.6
20260508193054 71 193 6.0 12.0 0.00 0.11 0.00 37 1014.8
20260508192521 71 75 3.0 11.0 0.00 0.11 0.00 34 1014.9
20260508192115 71 152 4.0 9.0 0.00 0.10 0.00 33 1017.1
20260508192019 71 145 4.0 12.0 0.00 0.11 0.00 32 1015.2
20260508191543 70 158 5.0 12.0 0.00 0.11 0.00 34 1015.0
20260508191044 70 183 3.0 10.0 0.00 0.10 0.00 32 1017.1
20260508191020 70 171 2.0 11.0 0.00 0.11 0.00 32 1015.2
20260508190518 70 199 5.0 11.0 0.00 0.11 0.00 34 1015.3
20260508190036 71 169 5.0 11.0 0.00 0.11 0.00 33 1015.3
20260508185521 70 146 5.0 11.0 0.00 0.11 0.00 32 1015.4
20260508185020 70 129 4.0 11.0 0.00 0.11 0.00 32 1015.4
20260508184846 70 156 4.0 10.0 0.00 0.10 0.00 32 1017.5
20260508184546 70 205 6.0 11.0 0.00 0.11 0.00 32 1015.5
20260508184020 70 179 4.0 9.0 0.00 0.11 0.00 33 1015.5
20260508183816 70 151 3.0 8.0 0.00 0.10 0.00 33 1017.5
20260508183524 69 258 4.0 9.0 0.00 0.11 0.00 31 1015.6
20260508183041 69 161 2.0 7.0 0.00 0.11 0.00 34 1015.6
20260508182841 70 228 2.0 8.0 0.00 0.10 0.00 31 1017.6
20260508182521 69 62 3.0 9.0 0.00 0.11 0.00 30 1015.6
20260508182022 69 108 3.0 10.0 0.00 0.11 0.00 31 1015.7
20260508181813 70 175 3.0 8.0 0.00 0.10 0.00 33 1017.7
20260508181552 69 137 4.0 10.0 0.00 0.11 0.00 34 1015.7
20260508181020 69 103 2.0 10.0 0.00 0.11 0.00 33 1015.8
20260508180759 69 154 2.0 6.0 0.00 0.10 0.00 31 1017.9
20260508180520 69 189 2.0 7.0 0.00 0.11 0.00 32 1015.9
20260508180043 69 188 2.0 7.0 0.00 0.11 0.00 33 1015.9
20260508175752 69 261 1.0 6.0 0.00 0.10 0.00 36 1018.0
20260508175520 68 233 1.0 7.0 0.00 0.11 0.00 35 1016.0
20260508175018 68 80 2.0 5.0 0.00 0.11 0.00 35 1016.1
20260508174539 68 177 1.0 7.0 0.00 0.11 0.00 35 1016.2
20260508174020 69 257 2.0 10.0 0.00 0.11 0.00 34 1016.2
20260508173645 70 237 3.0 9.0 0.00 0.10 0.00 38 1018.3
20260508173521 69 216 2.0 10.0 0.00 0.11 0.00 37 1016.4
20260508173042 68 204 4.0 9.0 0.00 0.11 0.00 39 1016.3
20260508172705 68 149 1.0 5.0 0.00 0.10 0.00 37 1018.4
20260508172522 67 230 2.0 7.0 0.00 0.11 0.00 36 1016.4
20260508172022 67 245 1.0 7.0 0.00 0.11 0.00 35 1016.4
20260508171715 67 191 2.0 6.0 0.00 0.10 0.00 36 1018.5
20260508171544 67 146 3.0 7.0 0.00 0.11 0.00 37 1016.5
20260508171022 67 0 3.0 7.0 0.00 0.11 0.00 35 1016.4
20260508170723 67 170 3.0 6.0 0.00 0.10 0.00 37 1018.6
20260508170522 67 140 1.0 10.0 0.00 0.11 0.00 34 1016.5
20260508170042 67 136 4.0 10.0 0.00 0.11 0.00 35 1016.6
20260508165728 68 187 2.0 8.0 0.00 0.10 0.00 41 1018.7
20260508165522 67 190 1.0 8.0 0.00 0.11 0.00 36 1016.6
20260508165022 66 357 3.0 11.0 0.00 0.11 0.00 38 1016.7
20260508164709 67 80 3.0 8.0 0.00 0.10 0.00 38 1018.8
20260508164540 66 95 3.0 11.0 0.00 0.11 0.00 37 1016.8
20260508164025 67 101 4.0 11.0 0.00 0.11 0.00 38 1017.0
20260508163734 66 220 2.0 6.0 0.00 0.10 0.00 41 1019.1
20260508163520 66 326 1.0 9.0 0.00 0.11 0.00 41 1017.1
20260508163046 66 22 4.0 9.0 0.00 0.11 0.00 37 1017.2
20260508162744 67 56 2.0 6.0 0.00 0.10 0.00 39 1019.2
20260508162522 67 90 2.0 8.0 0.00 0.11 0.00 44 1017.3
20260508162022 66 199 3.0 6.0 0.00 0.11 0.00 41 1017.3
20260508161756 66 253 1.0 5.0 0.00 0.10 0.00 41 1019.3
20260508161536 65 249 2.0 5.0 0.00 0.11 0.00 44 1017.4
20260508161022 65 341 1.0 5.0 0.00 0.11 0.00 43 1017.5
20260508160738 65 255 1.0 4.0 0.00 0.10 0.00 46 1019.5
20260508160522 64 303 1.0 4.0 0.00 0.11 0.00 43 1017.5
20260508155524 65 299 1.0 6.0 0.00 0.11 0.00 41 1017.6
20260508155022 64 117 2.0 6.0 0.00 0.11 0.00 42 1017.6
20260508154615 64 200 1.0 6.0 0.00 0.10 0.00 39 1019.7
20260508154542 64 183 2.0 4.0 0.00 0.11 0.00 41 1017.7
20260508154025 63 153 0.0 7.0 0.00 0.11 0.00 41 1017.8
20260508153603 64 16 2.0 6.0 0.00 0.10 0.00 41 1019.9
20260508153525 63 24 3.0 7.0 0.00 0.11 0.00 41 1017.8
20260508153045 64 92 3.0 7.0 0.00 0.11 0.00 43 1017.8
20260508152525 63 53 1.0 6.0 0.00 0.11 0.00 48 1017.9
20260508152021 62 75 1.0 8.0 0.00 0.11 0.00 45 1017.8
20260508151546 62 226 2.0 8.0 0.00 0.11 0.00 45 1017.9
20260508151513 63 211 3.0 7.0 0.00 0.10 0.00 45 1020.0
20260508151023 63 257 4.0 8.0 0.00 0.11 0.00 49 1017.9
20260508150522 62 289 1.0 7.0 0.00 0.11 0.00 49 1018.1
20260508150041 62 292 2.0 7.0 0.00 0.11 0.00 50 1018.0
20260508145522 62 223 3.0 7.0 0.00 0.11 0.00 51 1017.9
20260508145352 62 226 1.0 4.0 0.00 0.10 0.00 55 1020.1
20260508145025 61 341 1.0 5.0 0.00 0.11 0.00 48 1018.0
20260508144539 61 0 0.0 4.0 0.00 0.11 0.00 54 1017.9
20260508144414 61 288 1.0 5.0 0.00 0.10 0.00 53 1020.0
20260508144024 61 332 1.0 6.0 0.00 0.11 0.00 54 1018.0
20260508143522 61 14 1.0 8.0 0.00 0.11 0.00 56 1017.9
20260508143418 61 6 1.0 5.0 0.00 0.10 0.00 58 1020.0
20260508143056 61 102 3.0 8.0 0.00 0.11 0.00 54 1017.9
20260508142524 60 314 1.0 4.0 0.00 0.11 0.00 58 1017.9
20260508142348 61 209 0.0 3.0 0.00 0.10 0.00 55 1019.9
20260508142022 60 347 0.0 4.0 0.00 0.11 0.00 58 1017.9
20260508141551 59 56 1.0 4.0 0.00 0.11 0.00 57 1017.9
20260508141319 59 26 0.0 2.0 0.00 0.10 0.00 57 1020.0
20260508141021 59 352 0.0 5.0 0.00 0.11 0.00 59 1017.9
20260508140522 58 318 0.0 5.0 0.00 0.11 0.00 60 1017.9
20260508140257 59 8 1.0 2.0 0.00 0.10 0.00 59 1019.9
20260508140043 58 75 2.0 5.0 0.00 0.11 0.00 58 1017.8
20260508135549 58 24 0.0 3.0 0.00 0.14 0.00 63 1017.8
20260508135320 58 5 0.0 1.0 0.00 0.10 0.00 64 1019.8
20260508135022 58 0 0.0 3.0 0.00 0.14 0.00 66 1017.8
20260508134543 57 0 0.0 2.0 0.00 0.14 0.00 65 1017.8
20260508134248 57 5 0.0 1.0 0.00 0.10 0.00 67 1019.8
20260508134022 56 307 0.0 2.0 0.00 0.14 0.00 70 1017.8
20260508133522 56 0 0.0 3.0 0.00 0.14 0.00 73 1017.7
20260508133235 56 320 0.0 1.0 0.00 0.11 0.00 74 1019.7
20260508133053 55 325 1.0 3.0 0.00 0.14 0.00 77 1017.7
20260508132521 55 0 0.0 2.0 0.00 0.14 0.00 84 1017.6
20260508132213 55 132 0.0 0.0 0.00 0.11 0.00 83 1019.8
20260508132022 54 132 0.0 1.0 0.00 0.14 0.00 82 1017.8
20260508131541 54 0 0.0 1.0 0.00 0.14 0.00 85 1017.7
20260508131153 54 7 0.0 0.0 0.00 0.13 0.00 85 1019.7
20260508131023 53 0 0.0 1.0 0.00 0.14 0.00 86 1017.6
20260508130522 53 0 0.0 1.0 0.00 0.14 0.00 88 1017.7
20260508130130 53 345 0.0 0.0 0.00 0.13 0.00 88 1019.6
20260508130036 52 345 0.0 1.0 0.00 0.14 0.00 88 1017.6
20260508125525 52 0 0.0 1.0 0.00 0.24 0.00 89 1017.6
20260508125022 51 0 0.0 1.0 0.00 0.24 0.00 89 1017.6
20260508124541 50 0 0.0 1.0 0.00 0.24 0.00 89 1017.7
20260508124024 50 0 0.0 1.0 0.00 0.24 0.00 89 1017.6
20260508124006 50 90 0.0 0.0 0.00 0.17 0.00 89 1019.6
20260508123522 49 0 0.0 0.0 0.00 0.24 0.00 89 1017.5
20260508123041 48 0 0.0 0.0 0.00 0.24 0.00 90 1017.6
20260508122954 48 90 0.0 0.0 0.00 0.21 0.00 89 1019.6
20260508122521 46 0 0.0 0.0 0.00 0.24 0.00 90 1017.5
20260508122021 45 0 0.0 0.0 0.00 0.24 0.00 89 1017.4
20260508121957 46 90 0.0 0.0 0.00 0.21 0.00 89 1019.5
20260508121558 44 0 0.0 0.0 0.00 0.24 0.00 90 1017.4
20260508121022 43 0 0.0 0.0 0.00 0.24 0.00 90 1017.4
20260508120522 42 0 0.0 1.0 0.00 0.24 0.00 89 1017.4
20260508120041 42 0 0.0 1.0 0.00 0.24 0.00 89 1017.3
20260508115522 41 0 0.0 1.0 0.00 0.25 0.00 90 1017.2
20260508115022 40 0 0.0 0.0 0.00 0.25 0.00 89 1017.1
20260508114539 40 0 0.0 0.0 0.00 0.25 0.00 90 1017.1
20260508114022 40 0 0.0 1.0 0.00 0.25 0.00 90 1017.1
20260508113524 40 0 0.0 2.0 0.00 0.25 0.00 89 1017.0
20260508113512 40 90 0.0 0.0 0.00 0.24 0.00 89 1019.0
20260508113036 40 0 0.0 2.0 0.00 0.25 0.00 89 1016.9
20260508112521 39 126 1.0 2.0 0.00 0.25 0.00 89 1017.0
20260508112441 40 126 0.0 1.0 0.00 0.24 0.00 89 1018.9
20260508112022 39 0 0.0 1.0 0.00 0.25 0.00 89 1016.9
20260508111542 39 0 0.0 1.0 0.00 0.25 0.00 89 1016.7
20260508111501 39 126 0.0 0.0 0.00 0.24 0.00 89 1018.7
20260508111022 39 0 0.0 1.0 0.00 0.25 0.00 89 1016.5
20260508110522 39 0 0.0 1.0 0.00 0.25 0.00 89 1016.5
20260508110455 39 126 0.0 0.0 0.00 0.24 0.00 89 1018.5
20260508110051 39 0 0.0 0.0 0.00 0.25 0.00 89 1016.5
20260508105522 39 0 0.0 0.0 0.00 0.25 0.00 89 1016.4
20260508105422 40 126 0.0 0.0 0.00 0.24 0.00 89 1018.4
20260508105023 39 0 0.0 0.0 0.00 0.25 0.00 89 1016.4
20260508104540 39 0 0.0 0.0 0.00 0.25 0.00 89 1016.4
20260508104022 39 0 0.0 0.0 0.00 0.25 0.00 89 1016.2
20260508103521 40 0 0.0 0.0 0.00 0.25 0.00 89 1016.1
20260508103238 40 126 0.0 0.0 0.00 0.24 0.00 89 1018.2
20260508103040 40 0 0.0 0.0 0.00 0.25 0.00 89 1016.1
20260508102522 40 0 0.0 1.0 0.00 0.25 0.00 89 1016.0
20260508102220 40 126 0.0 0.0 0.00 0.24 0.00 89 1018.1
20260508102022 40 0 0.0 1.0 0.00 0.25 0.00 89 1016.0
20260508101539 40 0 0.0 1.0 0.00 0.25 0.00 89 1016.0
20260508101244 41 126 0.0 0.0 0.00 0.24 0.00 89 1017.9
20260508101025 40 0 0.0 2.0 0.00 0.25 0.00 89 1015.8
20260508100522 40 0 0.0 2.0 0.00 0.25 0.00 89 1015.9
20260508100307 41 126 0.0 1.0 0.00 0.24 0.00 89 1017.9
20260508100044 41 126 0.0 2.0 0.00 0.25 0.00 89 1015.8
20260508095525 41 0 0.0 1.0 0.00 0.25 0.00 89 1015.7
20260508095306 41 126 0.0 0.0 0.00 0.24 0.00 89 1017.7
20260508095022 41 0 0.0 1.0 0.00 0.25 0.00 89 1015.7
20260508094552 41 0 0.0 1.0 0.00 0.25 0.00 89 1015.5
20260508094238 41 126 0.0 0.0 0.00 0.24 0.00 89 1017.6
20260508094021 41 126 0.0 1.0 0.00 0.25 0.00 89 1015.6
20260508093522 41 0 0.0 1.0 0.00 0.25 0.00 89 1015.6
20260508093227 41 126 0.0 0.0 0.00 0.24 0.00 89 1017.6
20260508093042 41 0 0.0 2.0 0.00 0.25 0.00 89 1015.6
20260508092522 41 126 1.0 2.0 0.00 0.25 0.00 89 1015.4
20260508092022 41 0 0.0 0.0 0.00 0.25 0.00 89 1015.6
20260508091540 41 0 0.0 1.0 0.00 0.25 0.00 89 1015.4
20260508091119 42 126 0.0 0.0 0.00 0.24 0.00 89 1017.5
20260508091021 42 0 0.0 1.0 0.00 0.25 0.00 89 1015.4
20260508090523 42 0 0.0 1.0 0.00 0.25 0.00 89 1015.4
20260508090046 42 126 0.0 0.0 0.00 0.24 0.00 89 1017.3
20260508090041 42 0 0.0 1.0 0.00 0.25 0.00 89 1015.4
20260508085526 42 0 0.0 1.0 0.00 0.25 0.00 89 1015.2
20260508085046 42 126 0.0 0.0 0.00 0.24 0.00 89 1017.1
20260508085024 42 0 0.0 1.0 0.00 0.25 0.00 89 1015.1
20260508084536 42 126 0.0 1.0 0.00 0.25 0.00 89 1015.0
20260508084108 42 126 0.0 0.0 0.00 0.24 0.00 89 1017.0
20260508084020 42 0 0.0 0.0 0.00 0.25 0.00 89 1015.1
20260508083523 42 0 0.0 0.0 0.00 0.25 0.00 89 1015.0
20260508083117 42 0 0.0 0.0 0.00 0.25 0.00 89 1014.9
20260508083039 42 126 0.0 0.0 0.00 0.24 0.00 89 1016.9
20260508082523 42 0 0.0 0.0 0.00 0.25 0.00 89 1014.9
20260508082022 42 0 0.0 0.0 0.00 0.25 0.00 89 1014.8
20260508082012 43 126 0.0 0.0 0.00 0.24 0.00 89 1016.8
20260508081551 42 0 0.0 1.0 0.00 0.25 0.00 89 1014.9
20260508081035 43 126 0.0 0.0 0.00 0.24 0.00 89 1016.8
20260508081022 42 0 0.0 2.0 0.00 0.25 0.00 89 1014.7
20260508080522 42 0 0.0 2.0 0.00 0.25 0.00 89 1014.7
20260508080052 42 126 0.0 2.0 0.00 0.25 0.00 89 1014.7
20260508075522 42 126 0.0 0.0 0.00 0.28 0.00 89 1014.7
20260508075021 42 0 0.0 0.0 0.00 0.28 0.00 89 1014.7
20260508074945 43 126 0.0 0.0 0.00 0.24 0.00 89 1016.7
20260508074542 43 0 0.0 0.0 0.00 0.28 0.00 89 1014.7
20260508074021 43 0 0.0 0.0 0.00 0.28 0.00 89 1014.6
20260508073524 43 0 0.0 0.0 0.00 0.28 0.00 89 1014.6
20260508073041 43 0 0.0 0.0 0.00 0.28 0.00 89 1014.5
20260508072521 43 0 0.0 0.0 0.00 0.28 0.00 89 1014.4
20260508072022 43 0 0.0 0.0 0.00 0.28 0.00 89 1014.4
20260508071633 44 126 0.0 0.0 0.00 0.26 0.00 89 1016.5
20260508071539 43 0 0.0 0.0 0.00 0.28 0.00 89 1014.4
20260508071022 43 0 0.0 0.0 0.00 0.28 0.00 89 1014.4
20260508070606 44 126 0.0 0.0 0.00 0.26 0.00 89 1016.4
20260508070524 43 0 0.0 0.0 0.00 0.28 0.00 89 1014.4
20260508070045 43 0 0.0 0.0 0.00 0.28 0.00 89 1014.4
20260508065612 44 126 0.0 0.0 0.00 0.28 0.00 89 1016.4
20260508065525 44 0 0.0 0.0 0.00 0.29 0.00 89 1014.3
20260508065021 44 0 0.0 0.0 0.00 0.29 0.00 89 1014.3
20260508064601 44 0 0.0 1.0 0.00 0.29 0.00 89 1014.3
20260508064550 44 126 0.0 0.0 0.00 0.28 0.00 89 1016.4
20260508064022 44 0 0.0 1.0 0.00 0.29 0.00 89 1014.2
20260508063522 44 0 0.0 1.0 0.00 0.29 0.00 89 1014.3
20260508063046 44 0 0.0 0.0 0.00 0.29 0.00 88 1014.3
20260508062521 44 0 0.0 0.0 0.00 0.29 0.00 89 1014.4
20260508062022 44 0 0.0 0.0 0.00 0.29 0.00 89 1014.3
20260508061543 44 0 0.0 0.0 0.00 0.29 0.00 88 1014.4
20260508061203 45 126 0.0 0.0 0.00 0.28 0.00 88 1016.4
20260508061025 45 0 0.0 0.0 0.00 0.29 0.00 88 1014.3
20260508060522 45 0 0.0 1.0 0.00 0.29 0.00 88 1014.4
20260508060041 45 0 0.0 1.0 0.00 0.29 0.00 89 1014.4
20260508055522 45 0 0.0 1.0 0.00 0.30 0.00 89 1014.3
20260508055052 45 126 0.0 0.0 0.00 0.28 0.00 89 1016.4
20260508055021 45 0 0.0 1.0 0.00 0.30 0.00 89 1014.3
20260508054540 45 0 0.0 1.0 0.00 0.30 0.00 88 1014.4
20260508054040 46 126 0.0 0.0 0.00 0.28 0.00 88 1016.2
20260508054021 45 0 0.0 1.0 0.00 0.30 0.00 88 1014.3
20260508053522 45 0 0.0 1.0 0.00 0.30 0.00 88 1014.3
20260508053103 46 126 0.0 0.0 0.00 0.28 0.00 89 1016.1
20260508053038 45 0 0.0 1.0 0.00 0.30 0.00 88 1014.2
20260508052523 45 0 0.0 1.0 0.00 0.30 0.00 88 1014.1
20260508052036 46 126 0.0 0.0 0.00 0.28 0.00 88 1016.1
20260508052021 46 0 0.0 1.0 0.00 0.30 0.00 88 1014.1
20260508051536 46 0 0.0 0.0 0.00 0.30 0.00 88 1014.1
20260508051022 46 0 0.0 0.0 0.00 0.30 0.00 88 1014.0
20260508050522 46 0 0.0 1.0 0.00 0.30 0.00 88 1014.0
20260508050048 46 0 0.0 1.0 0.00 0.30 0.00 88 1014.0
20260508045940 47 126 0.0 0.0 0.00 0.29 0.00 88 1016.1
20260508045521 46 0 0.0 1.0 0.00 0.30 0.00 88 1014.0
20260508045021 46 0 0.0 1.0 0.00 0.30 0.00 88 1014.1
20260508044953 47 126 0.0 0.0 0.00 0.29 0.00 88 1016.1
20260508044541 47 126 0.0 1.0 0.00 0.30 0.00 88 1014.0
20260508044021 47 0 0.0 0.0 0.00 0.30 0.00 88 1014.0
20260508043932 47 126 0.0 0.0 0.00 0.29 0.00 88 1015.9
20260508043524 47 0 0.0 0.0 0.00 0.30 0.00 88 1013.9
20260508043040 47 0 0.0 0.0 0.00 0.30 0.00 88 1013.8
20260508042521 47 0 0.0 1.0 0.00 0.30 0.00 88 1013.7
20260508042019 47 0 0.0 1.0 0.00 0.30 0.00 88 1013.6
20260508041540 47 0 0.0 0.0 0.00 0.30 0.00 88 1013.6
20260508041019 48 0 0.0 0.0 0.00 0.30 0.00 88 1013.6
20260508040607 48 126 0.0 0.0 0.00 0.29 0.00 88 1015.7
20260508040522 48 0 0.0 0.0 0.00 0.30 0.00 88 1013.6
20260508040037 48 0 0.0 0.0 0.00 0.30 0.00 88 1013.8
20260508035608 49 126 0.0 0.0 0.00 0.29 0.30 88 1015.8
20260508035521 48 0 0.0 1.0 0.00 0.33 0.30 88 1013.7
20260508035019 48 0 0.0 1.0 0.00 0.33 0.30 88 1013.6
20260508034541 49 0 0.0 1.0 0.00 0.33 0.30 88 1013.6
20260508034538 49 126 0.0 0.0 0.00 0.29 0.30 88 1015.6
20260508034021 49 0 0.0 1.0 0.00 0.33 0.30 88 1013.5
20260508033520 49 0 0.0 1.0 0.00 0.33 0.30 88 1013.5
20260508033517 49 126 0.0 0.0 0.00 0.29 0.30 88 1015.5
20260508033042 49 0 0.0 0.0 0.00 0.33 0.30 88 1013.5
20260508032521 49 0 0.0 1.0 0.00 0.33 0.30 88 1013.6
20260508032448 50 126 0.0 0.0 0.00 0.29 0.30 88 1015.6
20260508032021 49 0 0.0 1.0 0.00 0.33 0.30 88 1013.5
20260508031541 50 0 0.0 1.0 0.00 0.33 0.30 88 1013.4
20260508031423 50 126 0.0 0.0 0.00 0.31 0.30 88 1015.5
20260508031021 50 0 0.0 1.0 0.00 0.33 0.30 88 1013.2
20260508030521 50 0 0.0 1.0 0.00 0.33 0.30 88 1013.3
20260508030412 51 126 0.0 0.0 0.00 0.32 0.30 88 1015.3
20260508030043 50 0 0.0 0.0 0.00 0.33 0.30 88 1013.3
20260508025521 50 0 0.0 0.0 0.00 0.34 0.30 88 1013.2
20260508025358 51 126 0.0 0.0 0.00 0.32 0.30 88 1015.2
20260508025025 51 0 0.0 0.0 0.00 0.34 0.30 88 1013.1
20260508024541 51 0 0.0 2.0 0.00 0.34 0.30 88 1013.2
20260508024021 51 0 0.0 2.0 0.00 0.34 0.30 88 1013.2
20260508023521 51 126 1.0 2.0 0.00 0.34 0.30 88 1013.0
20260508023317 52 126 0.0 0.0 0.00 0.33 0.30 88 1015.0
20260508023040 51 0 0.0 1.0 0.00 0.34 0.30 88 1012.9
20260508022521 52 0 0.0 1.0 0.00 0.34 0.30 88 1012.8
20260508022307 52 126 0.0 0.0 0.00 0.33 0.30 88 1014.8
20260508022022 52 0 0.0 1.0 0.00 0.34 0.30 88 1012.7
20260508021540 52 0 0.0 1.0 0.00 0.34 0.30 88 1012.7
20260508021020 52 0 0.0 2.0 0.00 0.34 0.30 88 1012.7
20260508020521 52 126 0.0 2.0 0.00 0.34 0.30 88 1012.5
20260508020152 53 126 0.0 0.0 0.00 0.33 0.30 88 1014.5
20260508020046 53 0 0.0 2.0 0.00 0.34 0.30 88 1012.5
20260508015521 53 0 0.0 2.0 0.00 0.36 0.30 88 1012.3
20260508015126 53 126 0.0 1.0 0.00 0.34 0.30 88 1014.3
20260508015021 53 168 0.0 2.0 0.00 0.36 0.30 88 1012.2
20260508014541 53 168 0.0 2.0 0.00 0.36 0.30 88 1012.2
20260508014120 54 220 0.0 1.0 0.00 0.34 0.30 88 1014.1
20260508014022 53 220 0.0 2.0 0.00 0.36 0.30 88 1012.0
20260508013521 54 0 0.0 3.0 0.00 0.36 0.30 88 1011.9
20260508013106 54 154 0.0 2.0 0.00 0.34 0.30 88 1013.9
20260508013039 54 154 0.0 3.0 0.00 0.36 0.30 88 1011.9
20260508012521 54 151 1.0 3.0 0.00 0.36 0.30 88 1011.8